IUS R/B(2), 16119

Orbit data source: Space-Track

IUS R/B(2), 16119 is space debris in GEO originally from a launch on Thu, 03 Oct 1985 UTC launched from the Air Force Eastern Test Range (AFETR). Debris objects in space refer to the collection of defunct objects orbiting the Earth. Examples of debris include non-operational satellites, rocket bodies, and fragments generated from explosions, collisions, or faulty payload assembly.

Loading next visibility...
Identifier
16119, 1985-092E
Orbit
GEO
Country
Flag of USUS
Related business
Manufacturer
UTC CSD
Mission
Spacecraft
Bus & Motor
ORBUS 6, Unknown motor
Mass
~1,100 kg wet, ~1,100 kg dry
Launch date (UTC)
1985-10-03 (40 years ago)
Launch vehicle
Unknown
Launch site
Air Force Eastern Test Range (AFETR)
Object type
Payload
Rocket body
Debris
Shape & HBR
Unknown
Radar Cross Section
Large (>1 m²)

Expand to show TLE details & history
Last TLE update: 1 day ago

TLE from 1 day ago
0 IUS R/B(2)
1 16119U 85092E   25293.92812650 -.00000217  00000-0  00000+0 0  9996
2 16119  10.4830 316.5431 0057933 177.0465 182.8873  1.01085043 23639
Epoch: 2025-10-20T22:16Z
TLE epoch observation values (Epoch: 2025-10-20T22:16:30.129Z)
Latitude
0.00001°
Longitude
-47.31187°
Altitude
35,801.319 km
Speed
3.065 km/s
True Right ascension
21h 05m 44s
True Declination
0° 00' 00"
Sunlit
Object was in daylight at epoch
Visualization orbit readout
Latitude
Unknown
Longitude
Unknown
Altitude
Unknown
Speed
Unknown
Apparent Right ascension
Unknown
Apparent Declination
Unknown
Sunlit
N/A
Visualization observer readout
Local Sidereal Time
03:35:35
Azimuth
Unknown
Elevation
Unknown
Doppler factor
Unknown
Orbital elements
Apogee altitude
35,804.13 km
Perigee altitude
35,318.196 km
Semi-major axis
41,939.3 km
Eccentricity
0.00579
Inclination
10.483°
RAAN
316.5431°
Arg. of periapsis
177.0465°
True anomaly
182.8541°
Mean anomaly
182.8873°
Eccentric anomaly
182.87068°
Mean motion
0.2527 °/min
Orbital period
1,424.59 mins
BSTAR
0
Loading maneuver chart data...
Computing Atmospheric mass density...
Loading historical data...
Loading historical data...
Loading historical data...
Loading historical data...
Loading historical data...
Loading historical data...
Loading historical data...
Other satellites on launch #92 in the year 1985 (1985-10-03 UTC)

Documentation

Showing up to 5 results
|